Weather History for Holloman AFB, NM

Change the Weather History Date:

Monday, December 10, 2012

  Actual Average Record
Temperature  
Mean Temperature 32 °F -  
Max Temperature 47 °F 53 °F 66 °F (1996)
Min Temperature 16 °F 25 °F 16 °F (2012)
Degree Days  
Heating Degree Days 34    
Moisture  
Dew Point 0 °F    
Average Humidity 30    
Maximum Humidity 62    
Minimum Humidity 12    
Precipitation  
Precipitation 0.00 in - - ()
Sea Level Pressure  
Sea Level Pressure 30.07 in    
Wind  
Wind Speed 12 mph (North)    
Max Wind Speed 24 mph    
Max Gust Speed 31 mph    
Visibility 10 miles    
Events      
Averages and records for this station are not official NWS values.
T = Trace of Precipitation, MM = Missing Value Source: NWS Daily Summary

Daily Weather History Graph

Daily Weather History Graph

Search for Another Location

Airport:

Trip Planner

Search our weather history database for the weather conditions in past years. The results will help you decide how hot, cold, wet, or windy it might be!

Date:

Astronomy

Dec. 10, 2012 Rise Set
Actual Time 6:56 AM MST 4:58 PM MST
Civil Twilight 6:29 AM MST 5:25 PM MST
Nautical Twilight 5:58 AM MST 5:56 PM MST
Astronomical Twilight 5:28 AM MST 6:26 PM MST
Moon 3:49 AM MST (12/10) 2:45 PM MST (12/10)
Length of Visible Light 10h 56m
Length of Day
10h 01m
Waning Crescent, 10% of the Moon is Illuminated
Dec 10
Waning Crescent
Dec 13
New
Dec 19
First Quarter
Dec 28
Full
Jan 4
Last Quarter

Hourly Weather History & Observations

Time (MST) Temp. Windchill Dew Point Humidity Pressure Visibility Wind Dir Wind Speed Gust Speed Precip Events Conditions
12:58 AM 28.4 °F 17.5 °F 11.7 °F 50% 30.10 in 10.0 mi North 13.8 mph - N/A   Clear
1:58 AM 23.9 °F 14.2 °F 11.8 °F 60% 30.12 in 10.0 mi North 9.2 mph - N/A   Clear
2:58 AM 20.3 °F 9.0 °F 9.1 °F 62% 30.11 in 10.0 mi North 10.4 mph - N/A   Clear
3:58 AM 19.2 °F 8.4 °F 7.3 °F 60% 30.11 in 10.0 mi North 9.2 mph - N/A   Clear
4:58 AM 19.4 °F 8.6 °F 1.9 °F 47% 30.13 in 10.0 mi North 9.2 mph - N/A   Clear
5:58 AM 16.9 °F 5.5 °F -3.6 °F 40% 30.14 in 10.0 mi North 9.2 mph - N/A   Clear
6:58 AM 19.4 °F 8.6 °F -4.7 °F 34% 30.16 in 10.0 mi North 9.2 mph - N/A   Clear
8:58 AM 33.8 °F 24.8 °F -2.2 °F 22% 30.16 in 10.0 mi North 12.7 mph - N/A   Clear
9:58 AM 35.6 °F 26.2 °F -0.2 °F 22% 30.15 in 10.0 mi North 15.0 mph - N/A   Clear
10:58 AM 40.3 °F 31.0 °F -5.4 °F 14% 30.12 in 10.0 mi North 19.6 mph 25.3 mph N/A   Clear
11:58 AM 42.3 °F 32.6 °F -5.3 °F 13% 30.07 in 10.0 mi North 24.2 mph 31.1 mph N/A   Clear
12:58 PM 44.2 °F 36.2 °F -5.4 °F 12% 30.03 in 10.0 mi North 19.6 mph 25.3 mph N/A   Clear
1:58 PM 45.7 °F 39.5 °F -4.2 °F 12% 30.01 in 10.0 mi North 13.8 mph - N/A   Clear
2:58 PM 47.1 °F - -1.3 °F 13% 29.99 in 10.0 mi North 12.7 mph - N/A   Clear
3:58 PM 47.3 °F - 0.5 °F 14% 29.99 in 10.0 mi North 12.7 mph - N/A   Clear
4:58 PM 43.9 °F 39.3 °F 2.5 °F 18% 30.01 in 10.0 mi NNW 8.1 mph - N/A   Clear
5:58 PM 38.1 °F 32.3 °F 1.6 °F 22% 30.02 in 10.0 mi NNW 8.1 mph - N/A   Clear
6:58 PM 33.6 °F - -0.4 °F 24% 30.04 in 10.0 mi Calm Calm - N/A   Clear
7:58 PM 32.2 °F 25.8 °F -1.7 °F 24% 30.01 in 10.0 mi West 6.9 mph - N/A   Clear
8:58 PM 29.8 °F 24.9 °F -1.8 °F 26% 30.04 in 10.0 mi ESE 4.6 mph - N/A   Clear
9:58 PM 24.6 °F 15.1 °F -3.8 °F 29% 30.06 in 10.0 mi NE 9.2 mph - N/A   Clear
10:58 PM 25.0 °F 15.5 °F -2.2 °F 31% 30.04 in 10.0 mi NNE 9.2 mph - N/A   Clear
11:58 PM 25.7 °F 16.4 °F -0.2 °F 33% 30.04 in 10.0 mi NNE 9.2 mph - N/A   Clear